"Period start","avg(HW err(1)/warn(2) (#))","avg(Visibility (m))","avg(Weather code (#))","avg(Precip intensity (mm/h))","min(HW err(1)/warn(2) (#))","max(HW err(1)/warn(2) (#))","std(HW err(1)/warn(2) (#))","med(HW err(1)/warn(2) (#))","min(Visibility (m))","max(Visibility (m))","std(Visibility (m))","med(Visibility (m))","min(Weather code (#))","max(Weather code (#))","std(Weather code (#))","med(Weather code (#))","min(Precip intensity (mm/h))","max(Precip intensity (mm/h))","std(Precip intensity (mm/h))","med(Precip intensity (mm/h))"
2017-08-29 00:00:00,0,49926,0,0.00,0,0,0,0,49255,50000,224,50000,0,0,0,0,0.00,0.00,0.00,0.00
2017-08-29 00:10:00,0,49653,0,0.00,0,0,0,0,48200,50000,641,50000,0,0,0,0,0.00,0.00,0.00,0.00
2017-08-29 00:20:00,0,49431,0,0.00,0,0,0,0,46647,50000,1160,50000,0,0,0,0,0.00,0.00,0.00,0.00
2017-08-29 00:30:00,0,47995,0,0.00,0,0,0,0,44302,50000,2481,50000,0,0,0,0,0.00,0.00,0.00,0.00
2017-08-29 00:40:00,0,49723,0,0.00,0,0,0,0,47228,50000,832,50000,0,0,0,0,0.00,0.00,0.00,0.00
2017-08-29 00:50:00,0,48954,0,0.00,0,0,0,0,45788,50000,1376,49730,0,0,0,0,0.00,0.00,0.00,0.00
2017-08-29 01:00:00,0,49857,0,0.00,0,0,0,0,48574,50000,428,50000,0,0,0,0,0.00,0.00,0.00,0.00
2017-08-29 01:10:00,0,48162,0,0.00,0,0,0,0,41391,50000,2782,49659,0,0,0,0,0.00,0.00,0.00,0.00
2017-08-29 01:20:00,0,48791,0,0.00,0,0,0,0,45218,50000,1796,50000,0,0,0,0,0.00,0.00,0.00,0.00
2017-08-29 01:30:00,0,49147,0,0.00,0,0,0,0,46052,50000,1372,50000,0,0,0,0,0.00,0.00,0.00,0.00
2017-08-29 01:40:00,0,48138,0,0.00,0,0,0,0,42797,50000,2524,49608,0,0,0,0,0.00,0.00,0.00,0.00
2017-08-29 01:50:00,0,48421,0,0.00,0,0,0,0,44381,50000,2002,49732,0,0,0,0,0.00,0.00,0.00,0.00
2017-08-29 02:00:00,0,49332,0,0.00,0,0,0,0,43815,50000,1842,50000,0,0,0,0,0.00,0.00,0.00,0.00
2017-08-29 02:10:00,0,49774,0,0.00,0,0,0,0,48949,50000,400,50000,0,0,0,0,0.00,0.00,0.00,0.00
2017-08-29 02:20:00,0,49125,0,0.00,0,0,0,0,44584,50000,1663,50000,0,0,0,0,0.00,0.00,0.00,0.00
2017-08-29 02:30:00,0,48130,0,0.00,0,0,0,0,41917,50000,2944,50000,0,0,0,0,0.00,0.00,0.00,0.00
2017-08-29 02:40:00,0,49111,0,0.00,0,0,0,0,44626,50000,1659,50000,0,0,0,0,0.00,0.00,0.00,0.00
2017-08-29 02:50:00,0,49996,0,0.00,0,0,0,0,49956,50000,13,50000,0,0,0,0,0.00,0.00,0.00,0.00
2017-08-29 03:00:00,0,46184,0,0.00,0,0,0,0,37969,50000,4871,49889,0,0,0,0,0.00,0.00,0.00,0.00
2017-08-29 03:10:00,0,47998,0,0.00,0,0,0,0,43787,50000,2578,50000,0,0,0,0,0.00,0.00,0.00,0.00
2017-08-29 03:20:00,0,47173,0,0.00,0,0,0,0,42123,50000,3115,48906,0,0,0,0,0.00,0.00,0.00,0.00
2017-08-29 03:30:00,0,46783,0,0.00,0,0,0,0,36960,50000,4763,49898,0,0,0,0,0.00,0.00,0.00,0.00
2017-08-29 03:40:00,0,48857,0,0.00,0,0,0,0,44685,50000,2038,50000,0,0,0,0,0.00,0.00,0.00,0.00
2017-08-29 03:50:00,0,49817,0,0.00,0,0,0,0,48728,50000,400,50000,0,0,0,0,0.00,0.00,0.00,0.00
2017-08-29 04:00:00,0,47100,0,0.00,0,0,0,0,40875,50000,3413,48534,0,0,0,0,0.00,0.00,0.00,0.00
2017-08-29 04:10:00,0,49129,0,0.00,0,0,0,0,45000,50000,1766,50000,0,0,0,0,0.00,0.00,0.00,0.00
2017-08-29 04:20:00,0,48480,0,0.00,0,0,0,0,45444,50000,1667,49096,0,0,0,0,0.00,0.00,0.00,0.00
2017-08-29 04:30:00,0,49019,0,0.00,0,0,0,0,45445,50000,1576,50000,0,0,0,0,0.00,0.00,0.00,0.00
2017-08-29 04:40:00,0,47522,0,0.00,0,0,0,0,39930,50000,3987,50000,0,0,0,0,0.00,0.00,0.00,0.00
2017-08-29 04:50:00,0,48823,0,0.00,0,0,0,0,44652,50000,1733,50000,0,0,0,0,0.00,0.00,0.00,0.00
2017-08-29 05:00:00,0,49368,0,0.00,0,0,0,0,45079,50000,1461,50000,0,0,0,0,0.00,0.00,0.00,0.00
2017-08-29 05:10:00,0,50000,0,0.00,0,0,0,0,50000,50000,0,50000,0,0,0,0,0.00,0.00,0.00,0.00
2017-08-29 05:20:00,0,50000,0,0.00,0,0,0,0,50000,50000,0,50000,0,0,0,0,0.00,0.00,0.00,0.00
2017-08-29 05:30:00,0,49771,0,0.00,0,0,0,0,48824,50000,458,50000,0,0,0,0,0.00,0.00,0.00,0.00
2017-08-29 05:40:00,0,48612,0,0.00,0,0,0,0,38997,50000,3267,50000,0,0,0,0,0.00,0.00,0.00,0.00
2017-08-29 05:50:00,0,49744,0,0.00,0,0,0,0,47437,50000,769,50000,0,0,0,0,0.00,0.00,0.00,0.00
2017-08-29 06:00:00,0,49979,0,0.00,0,0,0,0,49790,50000,63,50000,0,0,0,0,0.00,0.00,0.00,0.00
2017-08-29 06:10:00,0,49273,0,0.00,0,0,0,0,47361,50000,1120,50000,0,0,0,0,0.00,0.00,0.00,0.00
2017-08-29 06:20:00,0,49101,0,0.00,0,0,0,0,42615,50000,2214,50000,0,0,0,0,0.00,0.00,0.00,0.00
2017-08-29 06:30:00,0,50000,0,0.00,0,0,0,0,50000,50000,0,50000,0,0,0,0,0.00,0.00,0.00,0.00
2017-08-29 06:40:00,0,49538,0,0.00,0,0,0,0,45383,50000,1385,50000,0,0,0,0,0.00,0.00,0.00,0.00
2017-08-29 06:50:00,0,49461,0,0.00,0,0,0,0,47166,50000,1080,50000,0,0,0,0,0.00,0.00,0.00,0.00
2017-08-29 07:00:00,0,49852,0,0.00,0,0,0,0,48520,50000,444,50000,0,0,0,0,0.00,0.00,0.00,0.00
2017-08-29 07:10:00,0,49790,0,0.00,0,0,0,0,47897,50000,631,50000,0,0,0,0,0.00,0.00,0.00,0.00
2017-08-29 07:20:00,0,49429,0,0.00,0,0,0,0,45157,50000,1447,50000,0,0,0,0,0.00,0.00,0.00,0.00
2017-08-29 07:30:00,0,49708,0,0.00,0,0,0,0,48427,50000,586,50000,0,0,0,0,0.00,0.00,0.00,0.00
2017-08-29 07:40:00,0,50000,0,0.00,0,0,0,0,50000,50000,0,50000,0,0,0,0,0.00,0.00,0.00,0.00
2017-08-29 07:50:00,0,49926,0,0.00,0,0,0,0,49264,50000,221,50000,0,0,0,0,0.00,0.00,0.00,0.00
2017-08-29 08:00:00,0,50000,0,0.00,0,0,0,0,50000,50000,0,50000,0,0,0,0,0.00,0.00,0.00,0.00
2017-08-29 08:10:00,0,49933,0,0.00,0,0,0,0,49328,50000,202,50000,0,0,0,0,0.00,0.00,0.00,0.00
2017-08-29 08:20:00,0,50000,0,0.00,0,0,0,0,50000,50000,0,50000,0,0,0,0,0.00,0.00,0.00,0.00
2017-08-29 08:30:00,0,49056,0,0.00,0,0,0,0,44857,50000,1539,49980,0,0,0,0,0.00,0.00,0.00,0.00
2017-08-29 08:40:00,0,49794,0,0.00,0,0,0,0,47938,50000,619,50000,0,0,0,0,0.00,0.00,0.00,0.00
2017-08-29 08:50:00,0,49994,0,0.00,0,0,0,0,49937,50000,19,50000,0,0,0,0,0.00,0.00,0.00,0.00
2017-08-29 09:00:00,0,49724,0,0.00,0,0,0,0,47794,50000,664,50000,0,0,0,0,0.00,0.00,0.00,0.00
2017-08-29 09:10:00,0,50000,0,0.00,0,0,0,0,50000,50000,0,50000,0,0,0,0,0.00,0.00,0.00,0.00
2017-08-29 09:20:00,0,50000,0,0.00,0,0,0,0,50000,50000,0,50000,0,0,0,0,0.00,0.00,0.00,0.00
2017-08-29 09:30:00,0,49895,0,0.00,0,0,0,0,48946,50000,316,50000,0,0,0,0,0.00,0.00,0.00,0.00
2017-08-29 09:40:00,0,49634,0,0.00,0,0,0,0,48334,50000,593,50000,0,0,0,0,0.00,0.00,0.00,0.00
2017-08-29 09:50:00,0,50000,0,0.00,0,0,0,0,50000,50000,0,50000,0,0,0,0,0.00,0.00,0.00,0.00
2017-08-29 10:00:00,0,50000,0,0.00,0,0,0,0,50000,50000,0,50000,0,0,0,0,0.00,0.00,0.00,0.00
2017-08-29 10:10:00,0,49833,0,0.00,0,0,0,0,48774,50000,377,50000,0,0,0,0,0.00,0.00,0.00,0.00
2017-08-29 10:20:00,0,50000,0,0.00,0,0,0,0,50000,50000,0,50000,0,0,0,0,0.00,0.00,0.00,0.00
2017-08-29 10:30:00,0,50000,0,0.00,0,0,0,0,50000,50000,0,50000,0,0,0,0,0.00,0.00,0.00,0.00
2017-08-29 10:40:00,0,50000,0,0.00,0,0,0,0,50000,50000,0,50000,0,0,0,0,0.00,0.00,0.00,0.00
2017-08-29 10:50:00,0,49849,0,0.00,0,0,0,0,48947,50000,330,50000,0,0,0,0,0.00,0.00,0.00,0.00
2017-08-29 11:00:00,0,50000,0,0.00,0,0,0,0,50000,50000,0,50000,0,0,0,0,0.00,0.00,0.00,0.00
2017-08-29 11:10:00,0,50000,0,0.00,0,0,0,0,50000,50000,0,50000,0,0,0,0,0.00,0.00,0.00,0.00
2017-08-29 11:20:00,0,50000,0,0.00,0,0,0,0,50000,50000,0,50000,0,0,0,0,0.00,0.00,0.00,0.00
2017-08-29 11:30:00,0,50000,0,0.00,0,0,0,0,50000,50000,0,50000,0,0,0,0,0.00,0.00,0.00,0.00
2017-08-29 11:40:00,0,50000,0,0.00,0,0,0,0,50000,50000,0,50000,0,0,0,0,0.00,0.00,0.00,0.00
2017-08-29 11:50:00,0,50000,0,0.00,0,0,0,0,50000,50000,0,50000,0,0,0,0,0.00,0.00,0.00,0.00
2017-08-29 12:00:00,0,50000,0,0.00,0,0,0,0,50000,50000,0,50000,0,0,0,0,0.00,0.00,0.00,0.00
2017-08-29 12:10:00,0,50000,0,0.00,0,0,0,0,50000,50000,0,50000,0,0,0,0,0.00,0.00,0.00,0.00
2017-08-29 12:20:00,0,49950,0,0.00,0,0,0,0,49505,50000,148,50000,0,0,0,0,0.00,0.00,0.00,0.00
2017-08-29 12:30:00,0,50000,0,0.00,0,0,0,0,50000,50000,0,50000,0,0,0,0,0.00,0.00,0.00,0.00
2017-08-29 12:40:00,0,44846,0,0.00,0,0,0,0,39211,50000,4093,44931,0,0,0,0,0.00,0.00,0.00,0.00
2017-08-29 12:50:00,0,42398,0,0.00,0,0,0,0,33322,50000,4996,42262,0,0,0,0,0.00,0.00,0.00,0.00
2017-08-29 13:00:00,0,49735,0,0.00,0,0,0,0,48507,50000,535,50000,0,0,0,0,0.00,0.00,0.00,0.00
2017-08-29 13:10:00,0,48753,0,0.00,0,0,0,0,43718,50000,2401,50000,0,0,0,0,0.00,0.00,0.00,0.00
2017-08-29 13:20:00,0,49250,0,0.00,0,0,0,0,45405,50000,1377,49980,0,0,0,0,0.00,0.00,0.00,0.00
2017-08-29 13:30:00,0,40156,0,0.00,0,0,0,0,1018,50000,19202,49881,0,0,0,0,0.00,0.00,0.00,0.00
2017-08-29 13:40:00,0,3814,10,0.00,0,2,1,0,536,19918,5685,1280,10,10,0,10,0.00,0.00,0.00,0.00
2017-08-29 13:50:00,2,425,31,0.00,2,2,0,2,302,550,73,430,10,34,7,34,0.00,0.00,0.00,0.00
2017-08-29 14:00:00,2,312,34,0.00,2,2,0,2,257,417,47,298,34,34,0,34,0.00,0.00,0.00,0.00
2017-08-29 14:10:00,2,988,34,0.00,2,2,0,2,363,1765,435,932,34,34,0,34,0.00,0.00,0.00,0.00
2017-08-29 14:20:00,2,850,32,0.00,2,2,0,2,567,1427,280,754,30,34,2,34,0.00,0.00,0.00,0.00
2017-08-29 14:30:00,2,988,33,0.00,2,2,0,2,698,1222,135,1024,30,34,1,34,0.00,0.00,0.00,0.00
2017-08-29 14:40:00,2,1099,27,0.00,2,2,0,2,874,1463,196,1072,20,30,5,30,0.00,0.00,0.00,0.00
2017-08-29 14:50:00,2,1446,30,0.00,2,2,0,2,724,3654,856,1056,30,30,0,30,0.00,0.00,0.00,0.00
2017-08-29 15:00:00,2,2672,21,0.00,2,2,0,2,692,6169,1681,2148,20,30,3,20,0.00,0.00,0.00,0.00
2017-08-29 15:10:00,2,1182,20,0.00,2,2,0,2,753,1795,317,1190,20,20,0,20,0.00,0.00,0.00,0.00
2017-08-29 15:20:00,2,1475,25,0.00,2,2,0,2,751,4922,1222,970,20,30,5,25,0.00,0.00,0.00,0.00
2017-08-29 15:30:00,2,8452,22,0.00,2,2,0,2,1438,18122,6563,6913,20,30,4,20,0.00,0.00,0.00,0.00
2017-08-29 15:40:00,2,1670,20,0.00,2,2,0,2,769,3359,753,1720,20,20,0,20,0.00,0.00,0.00,0.00
2017-08-29 15:50:00,2,2504,20,0.00,2,2,0,2,1179,5171,1283,2164,20,20,0,20,0.00,0.00,0.00,0.00
2017-08-29 16:00:00,2,1229,20,0.00,2,2,0,2,748,2107,396,1210,20,20,0,20,0.00,0.00,0.00,0.00
2017-08-29 16:10:00,2,3607,20,0.00,2,2,0,2,2483,5301,794,3676,20,20,0,20,0.00,0.00,0.00,0.00
2017-08-29 16:20:00,2,5284,20,0.00,2,2,0,2,2264,9141,1834,5135,20,20,0,20,0.00,0.00,0.00,0.00
2017-08-29 16:30:00,1,12388,18,0.00,0,2,1,2,1128,33752,11133,8970,10,20,4,20,0.00,0.00,0.00,0.00
2017-08-29 16:40:00,1,415,24,0.00,0,2,1,0,276,639,129,354,10,34,12,33,0.00,0.00,0.00,0.00
2017-08-29 16:50:00,2,21714,34,0.00,0,2,1,2,4536,39743,10719,19008,30,34,1,34,0.00,0.00,0.00,0.00
2017-08-29 17:00:00,2,24959,22,0.00,0,2,1,2,8955,39995,11260,25560,20,30,4,20,0.00,0.00,0.00,0.00
2017-08-29 17:10:00,0,28439,20,0.00,0,0,0,0,21806,36430,4702,28438,20,20,0,20,0.00,0.00,0.00,0.00
2017-08-29 17:20:00,0,15667,20,0.00,0,0,0,0,665,46533,15959,8592,20,20,0,20,0.00,0.00,0.00,0.00
2017-08-29 17:30:00,0,13912,20,0.00,0,0,0,0,486,42373,17051,3018,20,20,0,20,0.00,0.00,0.00,0.00
2017-08-29 17:40:00,0,3430,20,0.00,0,0,0,0,827,11209,2828,2765,20,20,0,20,0.00,0.00,0.00,0.00
2017-08-29 17:50:00,0,10554,20,0.00,0,0,0,0,602,24684,8450,9205,20,20,0,20,0.00,0.00,0.00,0.00
2017-08-29 18:00:00,0,7514,12,0.00,0,0,0,0,3752,11804,2761,7530,10,20,4,10,0.00,0.00,0.00,0.00
2017-08-29 18:10:00,0,40606,7,0.00,0,0,0,0,18682,50000,10923,46986,0,10,5,10,0.00,0.00,0.00,0.00
2017-08-29 18:20:00,0,11617,6,0.00,0,0,0,0,772,50000,18810,1110,0,10,5,10,0.00,0.00,0.00,0.00
2017-08-29 18:30:00,0,5272,28,0.00,0,0,0,0,589,27376,8171,1708,10,34,9,33,0.00,0.00,0.00,0.00
2017-08-29 18:40:00,0,12072,27,0.00,0,0,0,0,726,37812,13644,2194,20,30,5,30,0.00,0.00,0.00,0.00
2017-08-29 18:50:00,0,43125,20,0.00,0,0,0,0,11163,50000,11853,49742,20,20,0,20,0.00,0.00,0.00,0.00
2017-08-29 19:00:00,0,49122,20,0.00,0,0,0,0,45610,50000,1480,50000,20,20,0,20,0.00,0.00,0.00,0.00
2017-08-29 19:10:00,0,48986,20,0.00,0,0,0,0,46521,50000,1256,49483,20,20,0,20,0.00,0.00,0.00,0.00
2017-08-29 19:20:00,0,44051,20,0.00,0,0,0,0,36967,50000,4355,43584,20,20,0,20,0.00,0.00,0.00,0.00
2017-08-29 19:30:00,0,34683,20,0.00,0,0,0,0,11399,50000,14674,38192,20,20,0,20,0.00,0.00,0.00,0.00
2017-08-29 19:40:00,0,40306,12,0.00,0,0,0,0,5911,50000,17212,50000,0,20,10,20,0.00,0.00,0.00,0.00
2017-08-29 19:50:00,0,40749,0,0.00,0,0,0,0,15496,50000,12303,48106,0,0,0,0,0.00,0.00,0.00,0.00
2017-08-29 20:00:00,0,49904,0,0.00,0,0,0,0,49036,50000,289,50000,0,0,0,0,0.00,0.00,0.00,0.00
2017-08-29 20:10:00,0,50000,0,0.00,0,0,0,0,50000,50000,0,50000,0,0,0,0,0.00,0.00,0.00,0.00
2017-08-29 20:20:00,0,49985,0,0.00,0,0,0,0,49853,50000,44,50000,0,0,0,0,0.00,0.00,0.00,0.00
2017-08-29 20:30:00,0,49583,0,0.00,0,0,0,0,47227,50000,889,50000,0,0,0,0,0.00,0.00,0.00,0.00
2017-08-29 20:40:00,0,50000,0,0.00,0,0,0,0,50000,50000,0,50000,0,0,0,0,0.00,0.00,0.00,0.00
2017-08-29 20:50:00,0,50000,0,0.00,0,0,0,0,50000,50000,0,50000,0,0,0,0,0.00,0.00,0.00,0.00
2017-08-29 21:00:00,0,49963,0,0.00,0,0,0,0,49630,50000,111,50000,0,0,0,0,0.00,0.00,0.00,0.00
2017-08-29 21:10:00,0,49310,0,0.00,0,0,0,0,43372,50000,1981,50000,0,0,0,0,0.00,0.00,0.00,0.00
2017-08-29 21:20:00,0,40519,0,0.00,0,0,0,0,32158,45831,5176,43965,0,0,0,0,0.00,0.00,0.00,0.00
2017-08-29 21:30:00,0,48473,0,0.00,0,0,0,0,46049,50000,1577,48882,0,0,0,0,0.00,0.00,0.00,0.00
2017-08-29 21:40:00,0,49571,0,0.00,0,0,0,0,48389,50000,651,50000,0,0,0,0,0.00,0.00,0.00,0.00
2017-08-29 21:50:00,0,48673,0,0.00,0,0,0,0,45453,50000,1515,49392,0,0,0,0,0.00,0.00,0.00,0.00
2017-08-29 22:00:00,0,49996,0,0.00,0,0,0,0,49956,50000,13,50000,0,0,0,0,0.00,0.00,0.00,0.00
2017-08-29 22:10:00,0,49854,0,0.00,0,0,0,0,48542,50000,437,50000,0,0,0,0,0.00,0.00,0.00,0.00
2017-08-29 22:20:00,0,49566,0,0.00,0,0,0,0,47266,50000,904,50000,0,0,0,0,0.00,0.00,0.00,0.00
2017-08-29 22:30:00,0,49938,0,0.00,0,0,0,0,49377,50000,187,50000,0,0,0,0,0.00,0.00,0.00,0.00
2017-08-29 22:40:00,0,50000,0,0.00,0,0,0,0,50000,50000,0,50000,0,0,0,0,0.00,0.00,0.00,0.00
2017-08-29 22:50:00,0,48784,17,0.24,0,0,0,0,40979,50000,2704,50000,0,61,27,0,0.00,0.95,0.38,0.00
2017-08-29 23:00:00,0,49024,53,0.21,0,0,0,0,40658,50000,2791,50000,51,61,4,51,0.00,0.55,0.21,0.17
2017-08-29 23:10:00,0,50000,6,0.00,0,0,0,0,50000,50000,0,50000,0,61,18,0,0.00,0.00,0.00,0.00
2017-08-29 23:20:00,0,45736,18,0.44,0,0,0,0,28185,50000,6507,48634,0,61,28,0,0.00,2.30,0.82,0.00
2017-08-29 23:30:00,0,49394,35,0.23,0,0,0,0,46190,50000,1168,50000,0,61,28,51,0.00,1.15,0.37,0.03
2017-08-29 23:40:00,0,49867,0,0.00,0,0,0,0,48667,50000,400,50000,0,0,0,0,0.00,0.00,0.00,0.00
2017-08-29 23:50:00,0,46120,0,0.00,0,0,0,0,23531,50000,7908,49466,0,0,0,0,0.00,0.00,0.00,0.00
